Weather History for Fort Leonard Wood, MO

Change the Weather History Date:

Sunday, January 15, 2012

  Actual Average Record
Temperature  
Mean Temperature 34 °F -  
Max Temperature 48 °F 38 °F 64 °F (2000)
Min Temperature 21 °F 25 °F 0 °F (2009)
Degree Days  
Heating Degree Days 30    
Moisture  
Dew Point 26 °F    
Average Humidity 66    
Maximum Humidity 93    
Minimum Humidity 43    
Precipitation  
Precipitation 0.00 in - - ()
Sea Level Pressure  
Sea Level Pressure 30.18 in    
Wind  
Wind Speed 10 mph (SSE)    
Max Wind Speed 21 mph    
Max Gust Speed 28 mph    
Visibility 10 miles    
Events      
Averages and records for this station are not official NWS values.
T = Trace of Precipitation, MM = Missing Value Source: NWS Daily Summary

Daily Weather History Graph

Daily Weather History Graph

Search for Another Location

Airport:

Trip Planner

Search our weather history database for the weather conditions in past years. The results will help you decide how hot, cold, wet, or windy it might be!

Date:

Astronomy

Jan. 15, 2012 Rise Set
Actual Time 7:22 AM CST 5:13 PM CST
Civil Twilight 6:54 AM CST 5:41 PM CST
Nautical Twilight 6:21 AM CST 6:14 PM CST
Astronomical Twilight 5:50 AM CST 6:45 PM CST
Moon No Moon Rise 10:49 AM CST (1/15)
Length of Visible Light 10h 47m
Length of Day
9h 50m
Waning Gibbous, 57% of the Moon is Illuminated
Jan 15
Waning Gibbous
Jan 16
Last Quarter
Jan 23
New
Jan 30
First Quarter
Feb 7
Full

Hourly Weather History & Observations

Time (CST) Temp. Windchill Dew Point Humidity Pressure Visibility Wind Dir Wind Speed Gust Speed Precip Events Conditions
12:55 AM 25.0 °F 19.3 °F 21.2 °F 86% 30.29 in 10.0 mi SSE 4.6 mph - N/A   Clear
1:55 AM 22.8 °F 14.5 °F 20.5 °F 91% 30.30 in 10.0 mi SSE 6.9 mph - N/A   Clear
2:55 AM 22.3 °F 13.9 °F 20.3 °F 92% 30.30 in 10.0 mi SSE 6.9 mph - N/A   Clear
3:55 AM 21.9 °F 14.5 °F 19.9 °F 92% 30.31 in 10.0 mi SSE 5.8 mph - N/A   Clear
4:55 AM 21.7 °F 12.3 °F 19.9 °F 93% 30.30 in 10.0 mi SE 8.1 mph - N/A   Clear
5:55 AM 21.9 °F 14.5 °F 19.9 °F 92% 30.31 in 10.0 mi SSE 5.8 mph - N/A   Clear
6:55 AM 23.0 °F 12.4 °F 21.2 °F 93% 30.30 in 10.0 mi SE 10.4 mph - N/A   Clear
7:55 AM 25.9 °F 15.3 °F 23.0 °F 89% 30.30 in 10.0 mi SE 11.5 mph - N/A   Clear
9:55 AM 36.9 °F 28.2 °F 25.5 °F 64% 30.30 in 10.0 mi South 13.8 mph 23.0 mph N/A   Clear
10:55 AM 40.5 °F 30.9 °F 24.8 °F 54% 30.28 in 10.0 mi SSE 20.7 mph 27.6 mph N/A   Clear
11:55 AM 44.6 °F 37.8 °F 25.9 °F 48% 30.24 in 10.0 mi South 15.0 mph 23.0 mph N/A   Clear
12:55 PM 46.4 °F 39.2 °F 26.2 °F 45% 30.19 in 10.0 mi SSE 18.4 mph 26.5 mph N/A   Clear
1:55 PM 48.2 °F - 27.1 °F 44% 30.16 in 10.0 mi South 16.1 mph 21.9 mph N/A   Clear
2:55 PM 48.4 °F - 27.1 °F 44% 30.13 in 10.0 mi South 15.0 mph 26.5 mph N/A   Clear
3:55 PM 48.7 °F - 27.3 °F 43% 30.11 in 10.0 mi SSE 12.7 mph 26.5 mph N/A   Clear
4:55 PM 46.4 °F 40.4 °F 27.7 °F 48% 30.10 in 10.0 mi SSE 13.8 mph 24.2 mph N/A   Clear
5:55 PM 44.2 °F 37.6 °F 28.6 °F 54% 30.08 in 10.0 mi SSE 13.8 mph 19.6 mph N/A   Clear
6:55 PM 43.9 °F 36.2 °F 28.9 °F 56% 30.06 in 10.0 mi SSE 17.3 mph 25.3 mph N/A   Clear
7:55 PM 43.5 °F 37.5 °F 29.8 °F 59% 30.06 in 10.0 mi South 11.5 mph 24.2 mph N/A   Clear
8:55 PM 43.3 °F 36.1 °F 31.3 °F 62% 30.04 in 10.0 mi South 15.0 mph 25.3 mph N/A   Clear
9:55 PM 45.3 °F 38.7 °F 32.0 °F 60% 30.02 in 10.0 mi South 15.0 mph 24.2 mph N/A   Clear
10:55 PM 45.9 °F 40.4 °F 32.4 °F 59% 30.02 in 10.0 mi South 11.5 mph 23.0 mph N/A   Clear
11:55 PM 46.0 °F 40.2 °F 32.5 °F 59% 29.99 in 10.0 mi South 12.7 mph 23.0 mph N/A   Clear